| time (UTC) | temp F | wind direction | speed MPH | gust MPH | rain 1hr in | rain 24hr in | rain mn in | humidity % | barometer mb |
| 20260906100749 | 79 | 96 | 0.0 | 0.0 | 0.00 | 0.00 | 0.00 | 74 | 1012.7 |
| 20260906100248 | 79 | 76 | 1.0 | 1.0 | 0.00 | 0.00 | 0.00 | 75 | 1012.8 |
| 20260906095744 | 79 | 129 | 1.0 | 1.0 | 0.00 | 0.00 | 0.00 | 75 | 1012.8 |
| 20260906095239 | 79 | 131 | 0.0 | 0.0 | 0.00 | 0.00 | 0.00 | 74 | 1012.9 |
| 20260906094738 | 79 | 131 | 0.0 | 0.0 | 0.00 | 0.00 | 0.00 | 74 | 1012.7 |
| 20260906094234 | 79 | 131 | 0.0 | 0.0 | 0.00 | 0.00 | 0.00 | 74 | 1012.7 |
| 20260906093730 | 79 | 131 | 0.0 | 1.0 | 0.00 | 0.00 | 0.00 | 74 | 1012.8 |
| 20260906093225 | 79 | 131 | 0.0 | 0.0 | 0.00 | 0.00 | 0.00 | 73 | 1012.7 |
| 20260906092721 | 79 | 132 | 1.0 | 1.0 | 0.00 | 0.00 | 0.00 | 73 | 1012.9 |
| 20260906092220 | 79 | 130 | 0.0 | 0.0 | 0.00 | 0.00 | 0.00 | 74 | 1012.8 |
| 20260906091716 | 79 | 130 | 0.0 | 0.0 | 0.00 | 0.00 | 0.00 | 73 | 1012.6 |
| 20260906091212 | 80 | 130 | 0.0 | 0.0 | 0.00 | 0.00 | 0.00 | 73 | 1012.6 |
| 20260906090708 | 80 | 130 | 0.0 | 1.0 | 0.00 | 0.00 | 0.00 | 72 | 1012.5 |
| 20260906090208 | 80 | 131 | 1.0 | 1.0 | 0.00 | 0.00 | 0.00 | 72 | 1012.6 |
| 20260906085707 | 81 | 130 | 0.0 | 1.0 | 0.00 | 0.00 | 0.00 | 71 | 1012.2 |
| 20260906085206 | 81 | 131 | 0.0 | 1.0 | 0.00 | 0.00 | 0.00 | 71 | 1012.4 |
| 20260906084700 | 81 | 131 | 0.0 | 1.0 | 0.00 | 0.00 | 0.00 | 71 | 1012.3 |
| 20260906084155 | 81 | 131 | 0.0 | 0.0 | 0.00 | 0.00 | 0.00 | 70 | 1012.4 |
| 20260906083650 | 81 | 131 | 0.0 | 0.0 | 0.00 | 0.00 | 0.00 | 71 | 1012.5 |
| 20260906083145 | 81 | 131 | 0.0 | 0.0 | 0.00 | 0.00 | 0.00 | 70 | 1012.3 |
| 20260906082640 | 82 | 132 | 0.0 | 1.0 | 0.00 | 0.00 | 0.00 | 69 | 1012.5 |
| 20260906082135 | 81 | 126 | 1.0 | 1.0 | 0.00 | 0.00 | 0.00 | 70 | 1012.4 |
| 20260906081626 | 82 | 123 | 0.0 | 0.0 | 0.00 | 0.00 | 0.00 | 69 | 1012.3 |
| 20260906081121 | 82 | 123 | 0.0 | 0.0 | 0.00 | 0.00 | 0.00 | 69 | 1012.5 |
| 20260906080617 | 82 | 117 | 0.0 | 1.0 | 0.00 | 0.00 | 0.00 | 69 | 1012.4 |
| 20260906080113 | 81 | 123 | 1.0 | 1.0 | 0.00 | 0.00 | 0.00 | 70 | 1012.3 |
| 20260906075607 | 81 | 121 | 1.0 | 1.0 | 0.00 | 0.00 | 0.00 | 70 | 1012.4 |
| 20260906075102 | 82 | 114 | 0.0 | 0.0 | 0.00 | 0.00 | 0.00 | 69 | 1012.3 |
| 20260906074557 | 82 | 113 | 1.0 | 1.0 | 0.00 | 0.00 | 0.00 | 69 | 1012.2 |
| 20260906074055 | 82 | 74 | 0.0 | 1.0 | 0.00 | 0.00 | 0.00 | 69 | 1012.2 |
| 20260906073550 | 82 | 71 | 0.0 | 1.0 | 0.00 | 0.00 | 0.00 | 69 | 1012.4 |
| 20260906073047 | 82 | 68 | 1.0 | 1.0 | 0.00 | 0.00 | 0.00 | 69 | 1012.3 |
| 20260906072541 | 82 | 80 | 1.0 | 1.0 | 0.00 | 0.00 | 0.00 | 69 | 1012.7 |
| 20260906072037 | 82 | 105 | 0.0 | 1.0 | 0.00 | 0.00 | 0.00 | 69 | 1012.6 |
| 20260906071533 | 82 | 113 | 0.0 | 0.0 | 0.00 | 0.00 | 0.00 | 69 | 1012.7 |
| 20260906071028 | 83 | 121 | 0.0 | 0.0 | 0.00 | 0.00 | 0.00 | 68 | 1012.3 |
| 20260906070525 | 83 | 128 | 1.0 | 1.0 | 0.00 | 0.00 | 0.00 | 67 | 1012.7 |
| 20260906070020 | 83 | 137 | 1.0 | 2.0 | 0.00 | 0.00 | 0.00 | 67 | 1012.7 |
| 20260906065519 | 84 | 135 | 0.0 | 1.0 | 0.00 | 0.00 | 0.00 | 66 | 1012.6 |
| 20260906065015 | 83 | 128 | 0.0 | 0.0 | 0.00 | 0.00 | 0.00 | 66 | 1012.8 |
| 20260906064511 | 84 | 131 | 0.0 | 1.0 | 0.00 | 0.00 | 0.00 | 66 | 1013.0 |
| 20260906064005 | 84 | 146 | 3.0 | 3.0 | 0.00 | 0.00 | 0.00 | 65 | 1012.7 |
| 20260906063501 | 84 | 134 | 0.0 | 0.0 | 0.00 | 0.00 | 0.00 | 65 | 1012.8 |
| 20260906062956 | 85 | 143 | 1.0 | 2.0 | 0.00 | 0.00 | 0.00 | 64 | 1012.6 |
| 20260906062451 | 85 | 138 | 2.0 | 3.0 | 0.00 | 0.00 | 0.00 | 64 | 1012.7 |
| 20260906061946 | 84 | 148 | 1.0 | 2.0 | 0.00 | 0.00 | 0.00 | 65 | 1012.6 |
| 20260906061442 | 85 | 137 | 1.0 | 1.0 | 0.00 | 0.00 | 0.00 | 64 | 1012.8 |
| 20260906060936 | 84 | 136 | 1.0 | 1.0 | 0.00 | 0.00 | 0.00 | 64 | 1013.2 |
| 20260906060433 | 84 | 132 | 0.0 | 0.0 | 0.00 | 0.00 | 0.00 | 64 | 1012.9 |
| 20260906055929 | 84 | 175 | 2.0 | 5.0 | 0.00 | 0.00 | 0.00 | 64 | 1013.0 |
| 20260906055425 | 84 | 173 | 2.0 | 2.0 | 0.00 | 0.00 | 0.00 | 64 | 1013.3 |
| 20260906054920 | 84 | 147 | 3.0 | 3.0 | 0.00 | 0.00 | 0.00 | 64 | 1012.9 |
| 20260906054415 | 85 | 141 | 1.0 | 2.0 | 0.00 | 0.00 | 0.00 | 63 | 1012.8 |
| 20260906053911 | 85 | 148 | 2.0 | 2.0 | 0.00 | 0.00 | 0.00 | 63 | 1013.0 |
| 20260906053407 | 85 | 147 | 3.0 | 5.0 | 0.00 | 0.00 | 0.00 | 62 | 1013.6 |
| 20260906052903 | 85 | 155 | 3.0 | 5.0 | 0.00 | 0.00 | 0.00 | 62 | 1013.4 |
| 20260906052358 | 85 | 149 | 3.0 | 5.0 | 0.00 | 0.00 | 0.00 | 61 | 1013.0 |
| 20260906051854 | 85 | 172 | 3.0 | 3.0 | 0.00 | 0.00 | 0.00 | 61 | 1013.2 |
| 20260906051349 | 86 | 148 | 1.0 | 1.0 | 0.00 | 0.00 | 0.00 | 61 | 1013.2 |
| 20260906050844 | 86 | 141 | 1.0 | 1.0 | 0.00 | 0.00 | 0.00 | 60 | 1013.4 |
| 20260906050339 | 86 | 141 | 2.0 | 2.0 | 0.00 | 0.00 | 0.00 | 60 | 1013.2 |
| 20260906045837 | 86 | 152 | 2.0 | 2.0 | 0.00 | 0.00 | 0.00 | 59 | 1013.0 |
| 20260906045326 | 86 | 172 | 3.0 | 3.0 | 0.00 | 0.00 | 0.00 | 59 | 1012.9 |
| 20260906044823 | 86 | 148 | 3.0 | 5.0 | 0.00 | 0.00 | 0.00 | 58 | 1013.3 |
| 20260906044317 | 86 | 141 | 3.0 | 5.0 | 0.00 | 0.00 | 0.00 | 58 | 1013.2 |
| 20260906043813 | 86 | 149 | 3.0 | 3.0 | 0.00 | 0.00 | 0.00 | 57 | 1013.0 |
| 20260906043309 | 87 | 160 | 2.0 | 2.0 | 0.00 | 0.00 | 0.00 | 57 | 1013.2 |
| 20260906042809 | 87 | 154 | 2.0 | 2.0 | 0.00 | 0.00 | 0.00 | 57 | 1012.8 |
| 20260906042308 | 87 | 206 | 4.0 | 7.0 | 0.00 | 0.00 | 0.00 | 57 | 1012.9 |
| 20260906041804 | 87 | 168 | 3.0 | 5.0 | 0.00 | 0.00 | 0.00 | 56 | 1013.0 |
| 20260906041259 | 87 | 173 | 4.0 | 6.0 | 0.00 | 0.00 | 0.00 | 55 | 1012.8 |
| 20260906040754 | 88 | 141 | 3.0 | 5.0 | 0.00 | 0.00 | 0.00 | 55 | 1012.7 |
| 20260906040249 | 88 | 143 | 4.0 | 7.0 | 0.00 | 0.00 | 0.00 | 55 | 1012.7 |
| 20260906035744 | 88 | 157 | 3.0 | 3.0 | 0.00 | 0.00 | 0.00 | 54 | 1012.7 |
| 20260906035240 | 89 | 175 | 6.0 | 9.0 | 0.00 | 0.00 | 0.00 | 53 | 1012.5 |
| 20260906034739 | 89 | 151 | 4.0 | 5.0 | 0.00 | 0.00 | 0.00 | 52 | 1012.8 |
| 20260906034229 | 89 | 153 | 4.0 | 6.0 | 0.00 | 0.00 | 0.00 | 52 | 1012.6 |
| 20260906033725 | 89 | 160 | 3.0 | 6.0 | 0.00 | 0.00 | 0.00 | 51 | 1012.5 |
| 20260906033224 | 89 | 144 | 3.0 | 5.0 | 0.00 | 0.00 | 0.00 | 50 | 1012.8 |
| 20260906032721 | 89 | 150 | 4.0 | 6.0 | 0.00 | 0.00 | 0.00 | 50 | 1012.6 |
| 20260906032221 | 88 | 170 | 5.0 | 6.0 | 0.00 | 0.00 | 0.00 | 50 | 1012.6 |
| 20260906031716 | 88 | 134 | 1.0 | 1.0 | 0.00 | 0.00 | 0.00 | 50 | 1012.5 |
| 20260906031211 | 89 | 133 | 0.0 | 0.0 | 0.00 | 0.00 | 0.00 | 49 | 1012.4 |
| 20260906030711 | 89 | 150 | 1.0 | 1.0 | 0.00 | 0.00 | 0.00 | 49 | 1012.2 |
| 20260906030206 | 89 | 135 | 1.0 | 1.0 | 0.00 | 0.00 | 0.00 | 48 | 1012.2 |
| 20260906025706 | 89 | 144 | 1.0 | 1.0 | 0.00 | 0.00 | 0.00 | 48 | 1012.3 |
| 20260906025201 | 89 | 127 | 0.0 | 1.0 | 0.00 | 0.00 | 0.00 | 48 | 1012.3 |
| 20260906024654 | 89 | 119 | 1.0 | 1.0 | 0.00 | 0.00 | 0.00 | 48 | 1012.3 |
| 20260906024154 | 89 | 126 | 1.0 | 1.0 | 0.00 | 0.00 | 0.00 | 47 | 1012.3 |
| 20260906023650 | 89 | 135 | 1.0 | 2.0 | 0.00 | 0.00 | 0.00 | 47 | 1012.0 |
| 20260906023150 | 89 | 130 | 1.0 | 1.0 | 0.00 | 0.00 | 0.00 | 47 | 1012.0 |
| 20260906022644 | 90 | 158 | 1.0 | 2.0 | 0.00 | 0.00 | 0.00 | 47 | 1011.9 |
| 20260906022141 | 90 | 130 | 1.0 | 1.0 | 0.00 | 0.00 | 0.00 | 47 | 1011.8 |
| 20260906021636 | 90 | 122 | 0.0 | 1.0 | 0.00 | 0.00 | 0.00 | 46 | 1011.8 |
| 20260906021134 | 90 | 127 | 1.0 | 2.0 | 0.00 | 0.00 | 0.00 | 46 | 1011.5 |
| 20260906020629 | 90 | 125 | 1.0 | 1.0 | 0.00 | 0.00 | 0.00 | 46 | 1012.0 |
| 20260906020124 | 91 | 123 | 1.0 | 1.0 | 0.00 | 0.00 | 0.00 | 46 | 1011.9 |
| 20260906015618 | 91 | 127 | 2.0 | 2.0 | 0.00 | 0.00 | 0.00 | 45 | 1011.5 |
| 20260906015111 | 92 | 135 | 2.0 | 2.0 | 0.00 | 0.00 | 0.00 | 44 | 1011.5 |
| 20260906014606 | 92 | 127 | 1.0 | 1.0 | 0.00 | 0.00 | 0.00 | 44 | 1011.6 |
| 20260906014103 | 92 | 137 | 1.0 | 2.0 | 0.00 | 0.00 | 0.00 | 44 | 1011.3 |
| 20260906013558 | 93 | 121 | 2.0 | 2.0 | 0.00 | 0.00 | 0.00 | 43 | 1011.2 |
| 20260906013053 | 93 | 126 | 2.0 | 2.0 | 0.00 | 0.00 | 0.00 | 43 | 1011.2 |
| 20260906012548 | 93 | 148 | 2.0 | 2.0 | 0.00 | 0.00 | 0.00 | 43 | 1011.2 |
| 20260906012047 | 93 | 155 | 1.0 | 2.0 | 0.00 | 0.00 | 0.00 | 43 | 1011.3 |
| 20260906011544 | 93 | 146 | 2.0 | 2.0 | 0.00 | 0.00 | 0.00 | 42 | 1011.3 |
| 20260906011043 | 94 | 158 | 2.0 | 2.0 | 0.00 | 0.00 | 0.00 | 42 | 1011.1 |
| 20260906010539 | 94 | 140 | 2.0 | 2.0 | 0.00 | 0.00 | 0.00 | 42 | 1010.8 |
| 20260906010035 | 94 | 145 | 2.0 | 2.0 | 0.00 | 0.00 | 0.00 | 41 | 1010.9 |
| 20260906005534 | 94 | 139 | 2.0 | 2.0 | 0.00 | 0.00 | 0.00 | 40 | 1011.0 |
| 20260906005033 | 94 | 139 | 1.0 | 2.0 | 0.00 | 0.00 | 0.00 | 39 | 1010.8 |
| 20260906004533 | 95 | 131 | 1.0 | 1.0 | 0.00 | 0.00 | 0.00 | 39 | 1010.9 |
| 20260906004028 | 95 | 143 | 1.0 | 2.0 | 0.00 | 0.00 | 0.00 | 38 | 1011.0 |
| 20260906003523 | 96 | 136 | 1.0 | 2.0 | 0.00 | 0.00 | 0.00 | 38 | 1010.9 |
| 20260906003019 | 96 | 167 | 4.0 | 5.0 | 0.00 | 0.00 | 0.00 | 38 | 1010.6 |
| 20260906002513 | 96 | 169 | 3.0 | 3.0 | 0.00 | 0.00 | 0.00 | 38 | 1010.8 |
| 20260906002008 | 97 | 131 | 1.0 | 1.0 | 0.00 | 0.00 | 0.00 | 37 | 1010.9 |
| 20260906001504 | 98 | 154 | 2.0 | 3.0 | 0.00 | 0.00 | 0.00 | 37 | 1010.6 |
| 20260906000958 | 98 | 169 | 3.0 | 5.0 | 0.00 | 0.00 | 0.00 | 36 | 1010.5 |
| 20260906000455 | 98 | 149 | 2.0 | 2.0 | 0.00 | 0.00 | 0.00 | 36 | 1010.8 |
| 20260905235953 | 98 | 125 | 3.0 | 5.0 | 0.00 | 0.00 | 0.00 | 36 | 1010.8 |
| 20260905235448 | 99 | 141 | 1.0 | 1.0 | 0.00 | 0.00 | 0.00 | 36 | 1010.5 |
| 20260905234943 | 99 | 150 | 5.0 | 9.0 | 0.00 | 0.00 | 0.00 | 36 | 1010.4 |
| 20260905234438 | 100 | 142 | 3.0 | 5.0 | 0.00 | 0.00 | 0.00 | 35 | 1010.3 |
| 20260905233933 | 100 | 75 | 1.0 | 2.0 | 0.00 | 0.00 | 0.00 | 36 | 1010.5 |
| 20260905233429 | 100 | 149 | 2.0 | 3.0 | 0.00 | 0.00 | 0.00 | 35 | 1010.5 |
| 20260905232927 | 100 | 141 | 3.0 | 3.0 | 0.00 | 0.00 | 0.00 | 35 | 1010.5 |
| 20260905232423 | 100 | 146 | 1.0 | 3.0 | 0.00 | 0.00 | 0.00 | 34 | 1010.5 |
| 20260905231918 | 100 | 128 | 1.0 | 2.0 | 0.00 | 0.00 | 0.00 | 35 | 1010.5 |
| 20260905231415 | 101 | 143 | 2.0 | 2.0 | 0.00 | 0.00 | 0.00 | 34 | 1010.5 |
| 20260905230911 | 101 | 165 | 3.0 | 3.0 | 0.00 | 0.00 | 0.00 | 34 | 1010.3 |
| 20260905230408 | 101 | 137 | 2.0 | 3.0 | 0.00 | 0.00 | 0.00 | 33 | 1010.5 |
| 20260905225902 | 101 | 62 | 4.0 | 8.0 | 0.00 | 0.00 | 0.00 | 33 | 1010.3 |
| 20260905225356 | 101 | 152 | 2.0 | 3.0 | 0.00 | 0.00 | 0.00 | 33 | 1010.3 |
| 20260905224852 | 102 | 144 | 0.0 | 1.0 | 0.00 | 0.00 | 0.00 | 33 | 1010.5 |
| 20260905224347 | 102 | 23 | 5.0 | 8.0 | 0.00 | 0.00 | 0.00 | 32 | 1010.4 |
| 20260905223842 | 103 | 127 | 1.0 | 1.0 | 0.00 | 0.00 | 0.00 | 31 | 1010.3 |
| 20260905223340 | 102 | 152 | 3.0 | 8.0 | 0.00 | 0.00 | 0.00 | 32 | 1010.5 |
| 20260905222834 | 101 | 94 | 2.0 | 3.0 | 0.00 | 0.00 | 0.00 | 32 | 1010.3 |
| 20260905222333 | 102 | 174 | 3.0 | 5.0 | 0.00 | 0.00 | 0.00 | 33 | 1010.4 |
| 20260905221829 | 102 | 138 | 4.0 | 6.0 | 0.00 | 0.00 | 0.00 | 32 | 1010.5 |
| 20260905221326 | 102 | 168 | 3.0 | 3.0 | 0.00 | 0.00 | 0.00 | 32 | 1010.4 |
| 20260905220821 | 102 | 144 | 2.0 | 2.0 | 0.00 | 0.00 | 0.00 | 31 | 1010.5 |
| 20260905220318 | 102 | 136 | 5.0 | 8.0 | 0.00 | 0.00 | 0.00 | 31 | 1010.7 |
| 20260905215816 | 103 | 161 | 2.0 | 3.0 | 0.00 | 0.00 | 0.00 | 31 | 1010.6 |
| 20260905215313 | 102 | 147 | 1.0 | 2.0 | 0.00 | 0.00 | 0.00 | 31 | 1010.4 |
| 20260905214809 | 101 | 141 | 1.0 | 3.0 | 0.00 | 0.00 | 0.00 | 33 | 1010.6 |
| 20260905214304 | 102 | 87 | 3.0 | 3.0 | 0.00 | 0.00 | 0.00 | 32 | 1010.4 |
| 20260905213759 | 103 | 130 | 2.0 | 2.0 | 0.00 | 0.00 | 0.00 | 32 | 1010.7 |
| 20260905213255 | 103 | 93 | 0.0 | 1.0 | 0.00 | 0.00 | 0.00 | 32 | 1010.7 |
| 20260905212750 | 103 | 88 | 6.0 | 7.0 | 0.00 | 0.00 | 0.00 | 31 | 1010.7 |
| 20260905212249 | 102 | 197 | 2.0 | 5.0 | 0.00 | 0.00 | 0.00 | 32 | 1010.7 |
| 20260905211749 | 102 | 144 | 1.0 | 2.0 | 0.00 | 0.00 | 0.00 | 32 | 1010.7 |
| 20260905211244 | 101 | 133 | 1.0 | 1.0 | 0.00 | 0.00 | 0.00 | 33 | 1010.8 |
| 20260905210742 | 101 | 152 | 6.0 | 10.0 | 0.00 | 0.00 | 0.00 | 33 | 1010.9 |
| 20260905210240 | 101 | 168 | 1.0 | 1.0 | 0.00 | 0.00 | 0.00 | 33 | 1011.0 |
| 20260905205739 | 101 | 186 | 3.0 | 5.0 | 0.00 | 0.00 | 0.00 | 33 | 1011.1 |
| 20260905205234 | 103 | 143 | 6.0 | 9.0 | 0.00 | 0.00 | 0.00 | 32 | 1010.9 |
| 20260905204728 | 101 | 347 | 12.0 | 15.0 | 0.00 | 0.00 | 0.00 | 34 | 1010.8 |
| 20260905204224 | 102 | 139 | 2.0 | 3.0 | 0.00 | 0.00 | 0.00 | 33 | 1011.3 |
| 20260905203724 | 101 | 99 | 4.0 | 6.0 | 0.00 | 0.00 | 0.00 | 34 | 1011.3 |
| 20260905203219 | 100 | 99 | 1.0 | 2.0 | 0.00 | 0.00 | 0.00 | 35 | 1011.5 |
| 20260905202715 | 102 | 154 | 1.0 | 1.0 | 0.00 | 0.00 | 0.00 | 34 | 1011.5 |
| 20260905202210 | 102 | 151 | 2.0 | 2.0 | 0.00 | 0.00 | 0.00 | 34 | 1011.8 |
| 20260905201705 | 100 | 161 | 0.0 | 1.0 | 0.00 | 0.00 | 0.00 | 35 | 1011.8 |
| 20260905201204 | 101 | 96 | 6.0 | 9.0 | 0.00 | 0.00 | 0.00 | 35 | 1011.9 |
| 20260905200700 | 101 | 168 | 2.0 | 2.0 | 0.00 | 0.00 | 0.00 | 35 | 1011.9 |
| 20260905200155 | 101 | 173 | 1.0 | 2.0 | 0.00 | 0.00 | 0.00 | 35 | 1012.0 |
| 20260905195648 | 99 | 171 | 2.0 | 3.0 | 0.00 | 0.00 | 0.00 | 36 | 1011.9 |
| 20260905195143 | 98 | 135 | 2.0 | 3.0 | 0.00 | 0.00 | 0.00 | 38 | 1012.1 |
| 20260905194639 | 100 | 152 | 1.0 | 3.0 | 0.00 | 0.00 | 0.00 | 35 | 1012.0 |
| 20260905194137 | 99 | 96 | 2.0 | 5.0 | 0.00 | 0.00 | 0.00 | 36 | 1012.1 |
| 20260905193633 | 99 | 226 | 3.0 | 3.0 | 0.00 | 0.00 | 0.00 | 36 | 1012.5 |
| 20260905193132 | 99 | 154 | 1.0 | 1.0 | 0.00 | 0.00 | 0.00 | 35 | 1012.3 |
| 20260905192628 | 100 | 93 | 0.0 | 1.0 | 0.00 | 0.00 | 0.00 | 34 | 1012.6 |
| 20260905192125 | 100 | 159 | 3.0 | 5.0 | 0.00 | 0.00 | 0.00 | 35 | 1012.8 |
| 20260905191624 | 100 | 127 | 2.0 | 5.0 | 0.00 | 0.00 | 0.00 | 35 | 1012.7 |
| 20260905191122 | 98 | 145 | 2.0 | 2.0 | 0.00 | 0.00 | 0.00 | 37 | 1012.9 |
| 20260905190621 | 98 | 215 | 4.0 | 5.0 | 0.00 | 0.00 | 0.00 | 37 | 1012.8 |
| 20260905190121 | 99 | 316 | 2.0 | 2.0 | 0.00 | 0.00 | 0.00 | 36 | 1013.0 |
| 20260905185619 | 99 | 147 | 1.0 | 1.0 | 0.00 | 0.00 | 0.00 | 38 | 1013.2 |
| 20260905185114 | 97 | 138 | 3.0 | 5.0 | 0.00 | 0.00 | 0.00 | 38 | 1013.2 |
| 20260905184608 | 96 | 70 | 5.0 | 6.0 | 0.00 | 0.00 | 0.00 | 40 | 1013.2 |
| 20260905184107 | 98 | 76 | 6.0 | 7.0 | 0.00 | 0.00 | 0.00 | 37 | 1013.5 |
| 20260905183606 | 98 | 128 | 2.0 | 2.0 | 0.00 | 0.00 | 0.00 | 38 | 1013.3 |
| 20260905183102 | 98 | 140 | 3.0 | 5.0 | 0.00 | 0.00 | 0.00 | 39 | 1013.5 |
| 20260905182601 | 97 | 286 | 1.0 | 1.0 | 0.00 | 0.00 | 0.00 | 40 | 1013.5 |
| 20260905182056 | 99 | 143 | 1.0 | 2.0 | 0.00 | 0.00 | 0.00 | 38 | 1013.7 |
| 20260905181551 | 98 | 86 | 0.0 | 1.0 | 0.00 | 0.00 | 0.00 | 39 | 1013.5 |
| 20260905181050 | 96 | 37 | 1.0 | 2.0 | 0.00 | 0.00 | 0.00 | 41 | 1013.6 |
| 20260905180545 | 97 | 174 | 4.0 | 7.0 | 0.00 | 0.00 | 0.00 | 40 | 1013.7 |
| 20260905180041 | 98 | 92 | 1.0 | 2.0 | 0.00 | 0.00 | 0.00 | 40 | 1013.8 |
| 20260905175540 | 97 | 38 | 2.0 | 5.0 | 0.00 | 0.00 | 0.00 | 41 | 1014.1 |
| 20260905175036 | 95 | 135 | 0.0 | 1.0 | 0.00 | 0.00 | 0.00 | 43 | 1014.1 |
| 20260905174531 | 98 | 139 | 1.0 | 1.0 | 0.00 | 0.00 | 0.00 | 41 | 1014.2 |
| 20260905174026 | 98 | 159 | 2.0 | 2.0 | 0.00 | 0.00 | 0.00 | 40 | 1014.1 |
| 20260905173523 | 97 | 98 | 1.0 | 1.0 | 0.00 | 0.00 | 0.00 | 40 | 1014.1 |
| 20260905173018 | 95 | 156 | 1.0 | 2.0 | 0.00 | 0.00 | 0.00 | 44 | 1014.3 |
| 20260905172516 | 96 | 118 | 3.0 | 6.0 | 0.00 | 0.00 | 0.00 | 44 | 1014.3 |
| 20260905172012 | 95 | 223 | 6.0 | 9.0 | 0.00 | 0.00 | 0.00 | 44 | 1014.2 |
| 20260905171508 | 93 | 221 | 4.0 | 5.0 | 0.00 | 0.00 | 0.00 | 46 | 1014.4 |
| 20260905171004 | 93 | 167 | 2.0 | 2.0 | 0.00 | 0.00 | 0.00 | 46 | 1014.5 |
| 20260905170500 | 95 | 116 | 0.0 | 1.0 | 0.00 | 0.00 | 0.00 | 46 | 1014.5 |
| 20260905165959 | 92 | 183 | 3.0 | 3.0 | 0.00 | 0.00 | 0.00 | 48 | 1014.5 |
| 20260905165455 | 91 | 292 | 5.0 | 6.0 | 0.00 | 0.00 | 0.00 | 53 | 1014.6 |
| 20260905164950 | 94 | 136 | 0.0 | 1.0 | 0.00 | 0.00 | 0.00 | 47 | 1014.6 |
| 20260905164444 | 95 | 111 | 2.0 | 2.0 | 0.00 | 0.00 | 0.00 | 46 | 1014.6 |
| 20260905163939 | 91 | 228 | 5.0 | 6.0 | 0.00 | 0.00 | 0.00 | 49 | 1014.7 |
| 20260905163436 | 91 | 285 | 3.0 | 3.0 | 0.00 | 0.00 | 0.00 | 54 | 1014.6 |
| 20260905162932 | 91 | 300 | 5.0 | 6.0 | 0.00 | 0.00 | 0.00 | 54 | 1014.6 |
| 20260905162426 | 91 | 215 | 4.0 | 5.0 | 0.00 | 0.00 | 0.00 | 53 | 1014.5 |
| 20260905161922 | 90 | 270 | 5.0 | 7.0 | 0.00 | 0.00 | 0.00 | 56 | 1014.6 |
| 20260905161421 | 91 | 268 | 3.0 | 5.0 | 0.00 | 0.00 | 0.00 | 55 | 1014.5 |
| 20260905160919 | 90 | 142 | 1.0 | 2.0 | 0.00 | 0.00 | 0.00 | 56 | 1014.4 |
| 20260905160412 | 90 | 204 | 4.0 | 5.0 | 0.00 | 0.00 | 0.00 | 56 | 1014.5 |
| 20260905155907 | 89 | 210 | 3.0 | 3.0 | 0.00 | 0.00 | 0.00 | 57 | 1014.6 |
| 20260905155407 | 89 | 212 | 2.0 | 2.0 | 0.00 | 0.00 | 0.00 | 58 | 1014.4 |
| 20260905154905 | 89 | 214 | 3.0 | 3.0 | 0.00 | 0.00 | 0.00 | 59 | 1014.5 |
| 20260905154401 | 89 | 223 | 3.0 | 3.0 | 0.00 | 0.00 | 0.00 | 60 | 1014.3 |
| 20260905153856 | 89 | 194 | 2.0 | 2.0 | 0.00 | 0.00 | 0.00 | 62 | 1014.4 |
| 20260905153353 | 89 | 233 | 4.0 | 5.0 | 0.00 | 0.00 | 0.00 | 63 | 1014.4 |
| 20260905152847 | 88 | 194 | 2.0 | 2.0 | 0.00 | 0.00 | 0.00 | 62 | 1014.5 |
| 20260905152346 | 88 | 161 | 1.0 | 2.0 | 0.00 | 0.00 | 0.00 | 62 | 1014.3 |
| 20260905151841 | 87 | 186 | 2.0 | 2.0 | 0.00 | 0.00 | 0.00 | 63 | 1014.5 |
| 20260905151336 | 87 | 129 | 0.0 | 1.0 | 0.00 | 0.00 | 0.00 | 62 | 1014.4 |
| 20260905150831 | 86 | 208 | 2.0 | 2.0 | 0.00 | 0.00 | 0.00 | 64 | 1014.4 |
| 20260905150326 | 86 | 179 | 2.0 | 2.0 | 0.00 | 0.00 | 0.00 | 66 | 1014.5 |
| 20260905145823 | 85 | 207 | 2.0 | 2.0 | 0.00 | 0.00 | 0.00 | 66 | 1014.4 |
| 20260905145323 | 85 | 209 | 2.0 | 2.0 | 0.00 | 0.00 | 0.00 | 67 | 1014.4 |
| 20260905144822 | 84 | 284 | 3.0 | 3.0 | 0.00 | 0.00 | 0.00 | 69 | 1014.6 |
| 20260905144318 | 85 | 308 | 3.0 | 6.0 | 0.00 | 0.00 | 0.00 | 68 | 1014.5 |
| 20260905143816 | 85 | 235 | 2.0 | 3.0 | 0.00 | 0.00 | 0.00 | 67 | 1014.7 |
| 20260905143311 | 84 | 212 | 5.0 | 6.0 | 0.00 | 0.00 | 0.00 | 66 | 1014.6 |
| 20260905142810 | 84 | 138 | 1.0 | 2.0 | 0.00 | 0.00 | 0.00 | 68 | 1014.5 |
| 20260905142306 | 85 | 123 | 1.0 | 1.0 | 0.00 | 0.00 | 0.00 | 67 | 1014.5 |
| 20260905141800 | 84 | 201 | 3.0 | 3.0 | 0.00 | 0.00 | 0.00 | 69 | 1014.8 |
| 20260905141255 | 84 | 151 | 1.0 | 1.0 | 0.00 | 0.00 | 0.00 | 70 | 1014.5 |
| 20260905140750 | 83 | 219 | 2.0 | 2.0 | 0.00 | 0.00 | 0.00 | 72 | 1014.6 |
| 20260905140245 | 82 | 140 | 1.0 | 1.0 | 0.00 | 0.00 | 0.00 | 73 | 1014.6 |
| 20260905135744 | 82 | 140 | 1.0 | 1.0 | 0.00 | 0.00 | 0.00 | 74 | 1014.5 |
| 20260905135240 | 81 | 164 | 2.0 | 2.0 | 0.00 | 0.00 | 0.00 | 75 | 1014.8 |
| 20260905134739 | 81 | 206 | 4.0 | 5.0 | 0.00 | 0.00 | 0.00 | 75 | 1014.4 |
| 20260905134238 | 82 | 209 | 3.0 | 3.0 | 0.00 | 0.00 | 0.00 | 74 | 1014.5 |
| 20260905133733 | 83 | 180 | 2.0 | 2.0 | 0.00 | 0.00 | 0.00 | 72 | 1014.5 |
| 20260905133229 | 82 | 135 | 0.0 | 1.0 | 0.00 | 0.00 | 0.00 | 75 | 1014.5 |
| 20260905132727 | 81 | 128 | 0.0 | 0.0 | 0.00 | 0.00 | 0.00 | 75 | 1014.3 |
| 20260905132223 | 81 | 127 | 0.0 | 1.0 | 0.00 | 0.00 | 0.00 | 75 | 1014.3 |
| 20260905131718 | 80 | 126 | 0.0 | 0.0 | 0.00 | 0.00 | 0.00 | 77 | 1014.2 |
| 20260905131214 | 78 | 132 | 1.0 | 2.0 | 0.00 | 0.00 | 0.00 | 80 | 1014.4 |
| 20260905130708 | 77 | 125 | 1.0 | 1.0 | 0.00 | 0.00 | 0.00 | 82 | 1014.5 |
| 20260905130208 | 77 | 124 | 1.0 | 1.0 | 0.00 | 0.00 | 0.00 | 83 | 1014.2 |
| 20260905125703 | 76 | 89 | 0.0 | 0.0 | 0.00 | 0.00 | 0.00 | 84 | 1014.2 |
| 20260905125158 | 76 | 89 | 0.0 | 0.0 | 0.00 | 0.00 | 0.00 | 84 | 1014.2 |
| 20260905124654 | 75 | 93 | 1.0 | 1.0 | 0.00 | 0.00 | 0.00 | 84 | 1014.3 |
| 20260905124150 | 75 | 93 | 1.0 | 1.0 | 0.00 | 0.00 | 0.00 | 84 | 1014.1 |
| 20260905123644 | 75 | 101 | 1.0 | 1.0 | 0.00 | 0.00 | 0.00 | 84 | 1014.0 |
| 20260905123142 | 75 | 99 | 1.0 | 1.0 | 0.00 | 0.00 | 0.00 | 85 | 1014.1 |
| 20260905122641 | 75 | 106 | 1.0 | 1.0 | 0.00 | 0.00 | 0.00 | 85 | 1014.2 |
| 20260905122137 | 75 | 130 | 0.0 | 0.0 | 0.00 | 0.00 | 0.00 | 84 | 1014.1 |
| 20260905121637 | 75 | 111 | 0.0 | 0.0 | 0.00 | 0.00 | 0.00 | 84 | 1014.0 |
| 20260905121132 | 76 | 117 | 1.0 | 1.0 | 0.00 | 0.00 | 0.00 | 84 | 1014.0 |
| 20260905120631 | 75 | 107 | 0.0 | 0.0 | 0.00 | 0.00 | 0.00 | 84 | 1013.9 |
| 20260905120126 | 76 | 111 | 0.0 | 0.0 | 0.00 | 0.00 | 0.00 | 84 | 1013.8 |
| 20260905115620 | 76 | 131 | 0.0 | 0.0 | 0.00 | 0.00 | 0.00 | 83 | 1013.9 |
| 20260905115115 | 75 | 126 | 0.0 | 0.0 | 0.00 | 0.00 | 0.00 | 83 | 1014.1 |
| 20260905114615 | 76 | 126 | 0.0 | 1.0 | 0.00 | 0.00 | 0.00 | 83 | 1013.7 |
| 20260905114113 | 76 | 123 | 1.0 | 1.0 | 0.00 | 0.00 | 0.00 | 83 | 1013.8 |
| 20260905113609 | 76 | 110 | 1.0 | 1.0 | 0.00 | 0.00 | 0.00 | 83 | 1013.9 |
| 20260905113103 | 75 | 91 | 1.0 | 1.0 | 0.00 | 0.00 | 0.00 | 84 | 1013.7 |
| 20260905112558 | 75 | 90 | 1.0 | 1.0 | 0.00 | 0.00 | 0.00 | 84 | 1013.8 |
| 20260905112054 | 76 | 93 | 0.0 | 0.0 | 0.00 | 0.00 | 0.00 | 83 | 1013.7 |
| 20260905111543 | 76 | 106 | 0.0 | 1.0 | 0.00 | 0.00 | 0.00 | 83 | 1013.7 |
| 20260905111042 | 76 | 99 | 1.0 | 1.0 | 0.00 | 0.00 | 0.00 | 83 | 1013.3 |
| 20260905110541 | 76 | 81 | 0.0 | 0.0 | 0.00 | 0.00 | 0.00 | 83 | 1013.5 |
| 20260905110036 | 76 | 76 | 0.0 | 1.0 | 0.00 | 0.00 | 0.00 | 83 | 1013.5 |
| 20260905105531 | 76 | 102 | 1.0 | 1.0 | 0.00 | 0.00 | 0.00 | 82 | 1013.6 |
| 20260905105029 | 76 | 108 | 0.0 | 0.0 | 0.00 | 0.00 | 0.00 | 82 | 1013.4 |
| 20260905104526 | 77 | 91 | 1.0 | 1.0 | 0.00 | 0.00 | 0.00 | 81 | 1013.0 |
| 20260905104020 | 77 | 78 | 1.0 | 1.0 | 0.00 | 0.00 | 0.00 | 81 | 1013.5 |
| 20260905103515 | 77 | 75 | 1.0 | 1.0 | 0.00 | 0.00 | 0.00 | 81 | 1013.4 |
| 20260905103012 | 77 | 88 | 1.0 | 1.0 | 0.00 | 0.00 | 0.00 | 81 | 1013.0 |
| 20260905102507 | 77 | 88 | 0.0 | 0.0 | 0.00 | 0.00 | 0.00 | 81 | 1013.3 |
| 20260905102003 | 77 | 85 | 1.0 | 1.0 | 0.00 | 0.00 | 0.00 | 81 | 1013.3 |
| 20260905101501 | 77 | 83 | 0.0 | 1.0 | 0.00 | 0.00 | 0.00 | 81 | 1013.7 |